SL-14 R/B

Satellite information

Favourite Embed

Satellite Type and Status

ROCKET BODYIN ORBIT

Key statistics

Satellite SL-14 R/B at a glance.

Uptime

13462

Days in orbit

Revolutions

≈ 12.5

Per day

Orbit

LEO

Low Earth Orbit

Inclination

82.6

Latest

Satellite identification and parameters

Extended collection of information and parameters for SL-14 R/B.

Object identification

Identified? True

Debris? False

Object name: SL-14 R/B

International designator: 1989-009G

Object number (NORAD): 19791

Object ID (CCSDS): 19791

Country: COMMONWEALTH OF INDEPENDENT STATES (CIS)

Current information (Y/N): Y

RCS size: LARGE

Orbital parameters

Period: 114.752 minutes

Inclination: 82.613 deg

SMA: 7822.286 km

Apoapsis: 1471.176 km

Periapsis: 1417.126 km

RAAN: 244.5579 deg

Eccentricy: 0.0034549

Argument of periapsis: 343.9501 deg

Mean anomaly: 43.3396 deg

Mean motion: 12.54880131 rev/day

Mean motion (dot): 0.00000032 rev/day2

B* drag term: 0.00013180338 1/REarth

Two-line elements (TLE)

Creation date: Dec. 20, 2025, 3:40 a.m.

Reference frame: TEME

Reference center: EARTH

Epoch: Dec. 19, 2025, 4:44 p.m. UTC

TLE line 0: 0 SL-14 R/B

TLE line 1: 1 19791U 89009G 25353.69723536 .00000032 00000-0 13180-3 0 9993

TLE line 2: 2 19791 82.6130 244.5579 0034549 343.9501 43.3396 12.54880131688042

Live tracking on map

Real-time ground track for satellite SL-14 R/B.

In-orbit conjunctions

A list of the most updated potential collisions computed for object SL-14 R/B.

Target Orbit TCA Probability of collision Miss distance Type
DELTA 1 DEB SSO 2025-12-19 11:22:35 0.0003520036 385.0 (m) DEBRIS

Associated space launch

Film-return reconnaissance satellite

SL-14 R/B was lifted into orbit during the mission ‘Soyuz U | Zenit-8 76’, on board a Soyuz U space rocket.

The launch took place on Feb. 10, 1989, 4:55 p.m. from 41/1.

For more information about the launch, click the button.

Launch to space Soyuz U | Zenit-8 76
Soyuz U | Zenit-8 76

Agency: N/A

Status: Launch Successful

Launch date: Feb. 10, 1989, 4:55 p.m. UTC

Rocket: Soyuz U

Launch pad: 41/1

Location: Plesetsk Cosmodrome, Russian Federation

...

Latest news about this satellite

There are no fresh news available about this satellite. Check back as we update our databases every day.


Newsletter sign-up

Weekly statistics, charts and insights to help you stay on top of the space industry.